Location: Castelbiague
(43.0361°N, 0.9246°E)
Time: 14:04:26
(UTC+00:00)

Cosmos 1455 Rocket - Pass Details

Date: 17 June 2021
Orbit: 605 x 629 km, 82.5° (Epoch: 30 July)

Event Time Altitude Azimuth Distance (km) Brightness Sun altitude
Rises 20:43:56 0° 358° (N) 2,924 7.3 -10.1°
Reaches altitude 10° 20:46:17 10° 6° (N) 2,014 6.3 -10.4°
Maximum altitude 20:50:31 42° 77° (ENE) 908 3.7 -10.9°
Enters shadow 20:53:46 16° 143° (SE) 1,648 4.6 -11.3°
